Weather History for Greenwood, MS

Change the Weather History Date:

Tuesday, October 9, 2012

  Actual Average Record
Temperature  
Mean Temperature 54 °F 66 °F  
Max Temperature 69 °F 79 °F 92 °F (2010)
Min Temperature 39 °F 54 °F 28 °F (2000)
Degree Days  
Heating Degree Days 11 2  
Month to date heating degree days 48 17  
Since 1 July heating degree days 55 29  
Cooling Degree Days 0 4  
Month to date cooling degree days 14 42  
Year to date cooling degree days 2186 2089  
Growing Degree Days 5 (Base 50)    
Moisture  
Dew Point 47 °F    
Average Humidity 72    
Maximum Humidity 100    
Minimum Humidity 44    
Precipitation  
Precipitation 0.00 in 0.12 in 1.84 in (1981)
Month to date precipitation 0.44 1.13  
Year to date precipitation 34.67 38.86  
Sea Level Pressure  
Sea Level Pressure 30.10 in    
Wind  
Wind Speed 3 mph (SSE)    
Max Wind Speed 9 mph    
Max Gust Speed 17 mph    
Visibility 10 miles    
Events      
T = Trace of Precipitation, MM = Missing Value Source: NWS Daily Summary

Daily Weather History Graph

Daily Weather History Graph

Search for Another Location

Airport:

Trip Planner

Search our weather history database for the weather conditions in past years. The results will help you decide how hot, cold, wet, or windy it might be!

Date:

Astronomy

Oct. 09, 2012 Rise Set
Actual Time 7:00 AM CDT 6:33 PM CDT
Civil Twilight 6:35 AM CDT 6:58 PM CDT
Nautical Twilight 6:07 AM CDT 7:27 PM CDT
Astronomical Twilight 5:38 AM CDT 7:55 PM CDT
Moon 12:54 AM CDT (10/9) 2:45 PM CDT (10/9)
Length of Visible Light 12h 22m
Length of Day
11h 32m
Last Quarter, 36% of the Moon is Illuminated
Oct 9
Last Quarter
Oct 15
New
Oct 21
First Quarter
Oct 29
Full
Nov 6
Last Quarter

Hourly Weather History & Observations

Time (CDT) Temp. Windchill Dew Point Humidity Pressure Visibility Wind Dir Wind Speed Gust Speed Precip Events Conditions
12:53 AM 46.0 °F - 46.0 °F 100% 30.16 in 7.0 mi Calm Calm - N/A   Partly Cloudy
1:53 AM 43.0 °F 41.3 °F 43.0 °F 100% 30.15 in 9.0 mi ENE 3.5 mph - N/A   Clear
3:53 AM 41.0 °F - 41.0 °F 100% 30.13 in 10.0 mi Calm Calm - N/A   Clear
4:53 AM 42.1 °F - 41.0 °F 96% 30.13 in 10.0 mi Calm Calm - N/A   Clear
5:53 AM 42.1 °F 40.2 °F 41.0 °F 96% 30.15 in 10.0 mi ENE 3.5 mph - N/A   Clear
6:53 AM 41.0 °F 39.0 °F 39.0 °F 93% 30.16 in 10.0 mi NE 3.5 mph - N/A   Clear
7:53 AM 45.0 °F 43.5 °F 43.0 °F 93% 30.17 in 10.0 mi NE 3.5 mph - N/A   Clear
8:53 AM 52.0 °F - 46.0 °F 80% 30.17 in 10.0 mi Calm Calm - N/A   Clear
9:53 AM 57.9 °F - 46.9 °F 67% 30.17 in 10.0 mi SE 4.6 mph - N/A   Clear
10:53 AM 61.0 °F - 46.0 °F 58% 30.17 in 10.0 mi South 5.8 mph - N/A   Clear
11:53 AM 64.0 °F - 46.9 °F 54% 30.15 in 10.0 mi Variable 4.6 mph - N/A   Clear
12:53 PM 63.0 °F - 46.0 °F 54% 30.12 in 10.0 mi Calm Calm - N/A   Clear
1:53 PM 66.0 °F - 46.9 °F 50% 30.08 in 10.0 mi Variable 4.6 mph - N/A   Clear
2:53 PM 66.9 °F - 46.9 °F 49% 30.06 in 10.0 mi South 5.8 mph - N/A   Clear
3:53 PM 69.1 °F - 46.9 °F 45% 30.04 in 10.0 mi WSW 3.5 mph - N/A   Clear
4:53 PM 68.0 °F - 46.9 °F 47% 30.03 in 10.0 mi SSW 8.1 mph - N/A   Clear
5:53 PM 66.9 °F - 48.0 °F 51% 30.01 in 10.0 mi South 6.9 mph - N/A   Clear
6:53 PM 57.0 °F - 52.0 °F 83% 30.00 in 10.0 mi Calm Calm - N/A   Clear
7:53 PM 55.9 °F - 52.0 °F 87% 30.01 in 10.0 mi Calm Calm - N/A   Clear
8:53 PM 55.0 °F - 52.0 °F 89% 30.02 in 10.0 mi Calm Calm - N/A   Clear
9:53 PM 54.0 °F - 52.0 °F 93% 30.05 in 10.0 mi Calm Calm - N/A   Scattered Clouds
10:53 PM 57.0 °F - 55.0 °F 93% 30.07 in 10.0 mi Calm Calm - N/A   Overcast
11:53 PM 59.0 °F - 54.0 °F 83% 30.06 in 10.0 mi South 3.5 mph - N/A   Overcast